sat.trackr.live / text

‹ back to catalog

STARLINK-35215

NORAD 65813 · 2025-218Y

PAYLOAD ACTIVE UNKNOWN

§ Identity

Operator
Country
US
Launch date
2025-09-26
Launch site
AFWTR
Launch vehicle
Mass (kg)
RCS (m²)

Purposes: comms

External: N2YO · Heavens-Above · Gunter

§ Orbital elements

Epoch: 2026-05-25T02:39:18.964224Z

Period
95.64 min
Inclination
97.4528°
Eccentricity
0.0001973
Mean motion
15.05659839 rev/d
Perigee alt
548.1 km
Apogee alt
550.8 km
Semi-major
6,927.6 km
B*
3.1163e-4
RAAN
7.9767°
Arg perigee
76.5117°
Mean anomaly
283.6330°
Rev number
3,647

§ Raw data

STARLINK-352151 65813U 25218Y   26145.11063616  .00004442  00000+0  31163-3 0  99932 65813  97.4528   7.9767 0001973  76.5117 283.6330 15.05659839 36479

JSON: /api/v1/satellites/65813 · /tle

For live sub-satellite position, see the globe view (requires WebGL).

§ Visibility from observer

Set your observer location to see the next 7 days of passes ≥ 10°. The values pass through the URL so the page stays shareable.

No JS? Fill the form by hand. The geolocation button needs JavaScript.